Change the Weather History Date:

Tuesday, December 3, 2013

  Actual Average Record
Temperature  
Mean Temperature 21 °F 16 °F  
Max Temperature 24 °F 25 °F 52 °F (1941)
Min Temperature 17 °F 8 °F -21 °F (1964)
Degree Days  
Heating Degree Days 44 49  
Month to date heating degree days 128 145  
Since 1 July heating degree days 2239 2344  
Cooling Degree Days 0 0  
Month to date cooling degree days 0 0  
Year to date cooling degree days 487 379  
Moisture  
Dew Point 15 °F    
Average Humidity 85    
Maximum Humidity 92    
Minimum Humidity 77    
Precipitation  
Precipitation 0.04 in 0.02 in 0.14 in (1970)
Month to date precipitation 0.21 0.06  
Year to date precipitation 19.04 20.26  
Snow  
Snow 0.30 in 0.30 in 2.00 in (1991)
Month to date snowfall 3.1 1.0  
Since 1 July snowfall 4.7 10.2  
Snow Depth 4.00 in    
Sea Level Pressure  
Sea Level Pressure 29.90 in    
Wind  
Wind Speed 19 mph (North)    
Max Wind Speed 26 mph    
Max Gust Speed 31 mph    
Visibility 5 miles    
Events Snow    
T = Trace of Precipitation, MM = Missing Value Source: NWS Daily Summary

Daily Weather History Graph

Daily Weather History Graph

Search for Another Location

Airport or City:

Trip Planner

Search our weather history database for the weather conditions in past years. The results will help you decide how hot, cold, wet, or windy it might be!

Date:

Astronomy

Dec. 03, 2013 Rise Set
Actual Time 8:00 AM CST 4:37 PM CST
Civil Twilight 7:24 AM CST 5:12 PM CST
Nautical Twilight 6:45 AM CST 5:51 PM CST
Astronomical Twilight 6:07 AM CST 6:29 PM CST
Moon 8:28 AM CST (12/3) 5:43 PM CST (12/3)
Length of Visible Light 9h 48m
Length of Day
8h 37m
New Moon, 1% of the Moon is Illuminated
Dec 3
New Moon
Dec 9
First Quarter
Dec 17
Full
Dec 25
Last Quarter
Jan 1
New

Hourly Weather History & Observations

Time (CST) Temp. Windchill Dew Point Humidity Pressure Visibility Wind Dir Wind Speed Gust Speed Precip Events Conditions
12:53 AM 23.0 °F 8.7 °F 18.0 °F 81% 29.81 in 10.0 mi North 18.4 mph 26.5 mph N/A   Overcast
1:53 AM 21.9 °F 6.9 °F 17.1 °F 82% 29.80 in 10.0 mi NNE 19.6 mph - N/A   Overcast
2:53 AM 21.9 °F 6.2 °F 17.1 °F 82% 29.84 in 10.0 mi North 21.9 mph - N/A   Overcast
3:53 AM 21.9 °F 6.9 °F 17.1 °F 82% 29.83 in 10.0 mi North 19.6 mph 28.8 mph N/A   Overcast
4:53 AM 21.9 °F 7.3 °F 17.1 °F 82% 29.83 in 10.0 mi North 18.4 mph - N/A   Overcast
5:53 AM 21.0 °F 6.2 °F 16.0 °F 81% 29.85 in 10.0 mi North 18.4 mph - N/A   Overcast
6:53 AM 21.0 °F 5.0 °F 16.0 °F 81% 29.86 in 10.0 mi North 21.9 mph 26.5 mph N/A   Overcast
7:53 AM 21.0 °F 5.7 °F 15.1 °F 78% 29.87 in 10.0 mi North 19.6 mph 27.6 mph N/A   Overcast
8:53 AM 19.0 °F 5.0 °F 15.1 °F 85% 29.91 in 10.0 mi NNW 15.0 mph - N/A   Overcast
9:53 AM 18.0 °F 3.6 °F 14.0 °F 84% 29.92 in 3.0 mi North 15.0 mph - 0.00 in Snow Light Snow
10:53 AM 17.1 °F -0.6 °F 12.9 °F 84% 29.93 in 6.0 mi North 23.0 mph 29.9 mph 0.00 in   Overcast
11:53 AM 17.1 °F -0.6 °F 12.9 °F 84% 29.91 in 7.0 mi North 23.0 mph - N/A   Overcast
12:53 PM 18.0 °F 1.7 °F 12.9 °F 81% 29.90 in 5.0 mi North 19.6 mph - N/A   Haze
1:53 PM 17.1 °F 0.6 °F 12.9 °F 84% 29.92 in 5.0 mi North 19.6 mph - 0.00 in Snow Light Snow
2:53 PM 17.1 °F 0.6 °F 12.9 °F 84% 29.92 in 3.0 mi North 19.6 mph 29.9 mph 0.00 in Snow Light Snow
3:53 PM 18.0 °F 1.7 °F 12.9 °F 81% 29.94 in 3.0 mi North 19.6 mph - 0.00 in Snow Light Snow
4:53 PM 18.0 °F 1.3 °F 14.0 °F 84% 29.93 in 3.0 mi North 20.7 mph - 0.00 in Snow Light Snow
5:44 PM 17.6 °F 2.2 °F 15.8 °F 93% 29.90 in 2.0 mi North 17.3 mph - 0.00 in Snow Light Snow
5:53 PM 18.0 °F 1.7 °F 15.1 °F 88% 29.95 in 2.0 mi North 19.6 mph - 0.00 in Snow Light Snow
6:00 PM 17.6 °F 0.9 °F 15.8 °F 93% 29.89 in 1.8 mi North 20.7 mph - 0.00 in Snow Light Snow
6:24 PM 17.6 °F 1.7 °F 15.8 °F 93% 29.89 in 2.0 mi North 18.4 mph - 0.00 in Snow Light Snow
6:53 PM 18.0 °F 3.1 °F 15.1 °F 88% 29.94 in 3.0 mi North 16.1 mph - 0.01 in Snow Light Snow
7:34 PM 19.4 °F 4.5 °F 15.8 °F 86% 29.89 in 3.0 mi North 17.3 mph - 0.00 in Snow Light Snow
7:53 PM 19.0 °F 5.0 °F 16.0 °F 88% 29.96 in 3.0 mi North 15.0 mph 23.0 mph 0.00 in Snow Light Snow
8:53 PM 19.0 °F 4.0 °F 16.0 °F 88% 29.96 in 3.0 mi North 17.3 mph - 0.00 in Snow Light Snow
9:23 PM 19.4 °F 4.1 °F 15.8 °F 86% 29.88 in 4.0 mi North 18.4 mph - 0.00 in Snow Light Snow
9:53 PM 19.9 °F 4.3 °F 16.0 °F 85% 29.93 in 5.0 mi North 19.6 mph - 0.00 in Snow Light Snow
10:42 PM 19.4 °F 5.5 °F 15.8 °F 86% 29.88 in 2.5 mi North 15.0 mph - 0.00 in Snow Light Snow
10:53 PM 19.0 °F 6.1 °F 16.0 °F 88% 29.94 in 2.5 mi North 12.7 mph - 0.01 in Snow Light Snow
11:14 PM 19.4 °F 5.5 °F 15.8 °F 86% 29.89 in 1.5 mi North 15.0 mph - 0.00 in Snow Light Snow
11:30 PM 19.4 °F 6.6 °F 15.8 °F 86% 29.89 in 0.8 mi North 12.7 mph - 0.01 in Snow Light Snow
11:45 PM 19.4 °F 6.6 °F 15.8 °F 86% 29.90 in 1.0 mi North 12.7 mph - 0.02 in Snow Light Snow
11:53 PM 19.0 °F 6.1 °F 17.1 °F 92% 29.95 in 1.2 mi North 12.7 mph - 0.02 in Snow Light Snow